This is the latest recevied weather packets stored in our database for station/object K7AEL. If no packets are shown the sender has not sent any weather packets the latest 10 day(s).
| Time | Temp. | Humidity | Pressure | Rain* | Wind** | Luminosity | Snow |
|---|---|---|---|---|---|---|---|
| 1778061054 | 13.33° C | 59% | 1015.4 hPa | 0 mm | - | 0 W/m² | - |
| 1778060752 | 13.33° C | 58% | 1015.4 hPa | 0 mm | - | 0 W/m² | - |
| 1778060449 | 13.33° C | 57% | 1015.5 hPa | 0 mm | - | 0 W/m² | - |
| 1778060147 | 13.33° C | 56% | 1015.6 hPa | 0 mm | - | 0 W/m² | - |
| 1778059844 | 13.33° C | 57% | 1015.6 hPa | 0 mm | - | 0 W/m² | - |
| 1778059543 | 13.33° C | 58% | 1015.4 hPa | 0 mm | - | 0 W/m² | - |
| 1778059239 | 13.33° C | 57% | 1015.5 hPa | 0 mm | - | 0 W/m² | - |
| 1778058937 | 13.33° C | 57% | 1015.4 hPa | 0 mm | - | 0 W/m² | - |
| 1778058634 | 13.33° C | 57% | 1015.4 hPa | 0 mm | - | 0 W/m² | - |
| 1778058332 | 13.33° C | 57% | 1015.4 hPa | 0 mm | - | 0 W/m² | - |
| 1778058028 | 13.33° C | 58% | 1015.4 hPa | 0 mm | - | 0 W/m² | - |
| 1778057725 | 13.89° C | 55% | 1015.4 hPa | 0 mm | - | 0 W/m² | - |
| 1778057422 | 13.89° C | 54% | 1015.5 hPa | 0 mm | - | 0 W/m² | - |
| 1778057119 | 13.89° C | 53% | 1015.5 hPa | 0 mm | - | 0 W/m² | - |
| 1778056815 | 13.89° C | 54% | 1015.6 hPa | 0 mm | - | 0 W/m² | - |
| 1778056512 | 13.89° C | 54% | 1015.6 hPa | 0 mm | - | 0 W/m² | - |
| 1778056209 | 13.89° C | 53% | 1015.5 hPa | 0 mm | - | 0 W/m² | - |
| 1778055906 | 14.44° C | 52% | 1015.7 hPa | 0 mm | - | 0 W/m² | - |
| 1778055602 | 14.44° C | 51% | 1015.5 hPa | 0 mm | - | 0 W/m² | - |
| 1778055301 | 14.44° C | 51% | 1015.5 hPa | 0 mm | - | 0 W/m² | - |
| 1778054997 | 15° C | 49% | 1015.6 hPa | 0 mm | - | 0 W/m² | - |
| 1778054694 | 15° C | 48% | 1015.8 hPa | 0 mm | - | 0 W/m² | - |
| 1778054392 | 15° C | 48% | 1015.6 hPa | 0 mm | - | 0 W/m² | - |
| 1778054089 | 15° C | 48% | 1015.8 hPa | 0 mm | - | 0 W/m² | - |
| 1778053786 | 15° C | 50% | 1015.8 hPa | 0 mm | - | 0 W/m² | - |
* Rain latest hour (hover to see other rain measurements)
** Current wind speed in m/s (hover to see current wind gust speed)